CST,Max TemperatureF,Mean TemperatureF,Min TemperatureF,Max Dew PointF,MeanDew PointF,Min DewpointF,Max Humidity, Mean Humidity, Min Humidity, Max Sea Level PressureIn, Mean Sea Level PressureIn, Min Sea Level PressureIn, Max VisibilityMiles, Mean VisibilityMiles, Min VisibilityMiles, Max Wind SpeedMPH, Mean Wind SpeedMPH, Max Gust SpeedMPH,PrecipitationIn, CloudCover, Events, WindDirDegrees
2013-2-1,63,56,46,39,33,24,63,47,33,30.39,30.34,30.31,10,10,6,13,6,,0.00,0,,351
2013-2-2,62,52,42,49,35,21,62,50,39,30.38,30.28,30.18,10,10,10,9,6,,0.00,0,,114
2013-2-3,66,58,50,51,43,32,86,59,31,30.25,30.17,30.11,10,10,10,10,6,16,0.00,1,,312
2013-2-4,64,56,48,53,45,37,80,62,44,30.12,30.07,29.99,10,10,10,8,5,,0.00,2,Rain,113
2013-2-5,64,60,57,59,56,54,93,86,68,30.05,30.01,29.97,10,10,5,10,4,,0.28,8,Rain,77
2013-2-6,69,63,57,61,57,55,94,84,68,30.15,30.08,30.04,10,9,2,9,4,,0.00,5,,72
2013-2-7,72,66,57,64,61,55,100,88,66,30.05,29.88,29.79,10,7,1,24,7,32,1.08,6,Rain,78
2013-2-8,66,60,53,59,54,50,100,87,72,30.14,30.02,29.94,10,6,0,10,1,,0.00,3,Fog,330
2013-2-9,60,54,48,52,47,39,94,76,51,30.26,30.19,30.15,10,9,1,9,6,16,0.00,1,,52
2013-2-10,70,60,51,66,58,48,92,85,77,30.18,30.11,30.04,10,9,8,22,10,29,0.00,6,,127
2013-2-11,73,66,60,68,64,55,94,87,78,30.11,30.06,30.03,10,8,2,15,10,26,0.31,8,Rain-Thunderstorm,138
2013-2-12,71,66,60,68,62,56,94,87,78,30.04,29.90,29.79,10,9,6,14,8,24,0.01,8,Rain,105
2013-2-13,70,60,50,67,52,43,94,75,50,30.05,29.91,29.80,10,9,4,14,8,23,0.02,6,Rain,318
2013-2-14,57,50,44,43,39,38,82,72,53,30.15,30.08,30.02,10,10,10,14,8,,0.00,0,,2
2013-2-15,62,52,42,46,41,37,90,65,41,30.16,30.09,30.03,10,10,9,9,3,,0.00,0,,329
2013-2-16,55,48,41,43,27,14,71,43,24,30.28,30.13,30.04,10,10,10,21,12,32,0.00,2,Rain,325
2013-2-17,52,44,37,33,23,12,70,44,23,30.40,30.32,30.27,10,10,10,10,7,,0.00,0,,355
2013-2-18,62,56,51,51,40,27,67,52,38,30.33,30.25,30.10,10,10,10,20,11,28,0.00,1,,144
2013-2-19,69,60,51,61,52,29,94,70,40,30.19,30.09,30.03,10,8,2,18,11,28,0.38,6,Rain,293
2013-2-20,59,51,43,38,29,22,76,48,25,30.23,30.17,30.11,10,10,10,13,7,18,0.00,0,,17
2013-2-21,64,55,46,63,49,34,94,73,41,30.12,30.02,29.94,10,9,6,17,8,23,0.00,4,,110
2013-2-22,69,66,64,67,65,63,100,94,88,29.98,29.94,29.91,10,4,0,14,8,24,2.22,8,Fog-Rain-Thunderstorm,155
2013-2-23,70,64,57,68,62,55,100,92,78,29.94,29.88,29.80,10,6,0,13,6,21,1.07,8,Fog-Rain-Thunderstorm,331
2013-2-24,68,62,55,59,55,51,94,81,56,29.99,29.92,29.86,10,8,2,16,7,25,0.59,7,Rain-Thunderstorm,55
2013-2-25,66,63,60,64,59,57,94,89,80,29.86,29.73,29.55,10,7,2,23,11,33,2.79,8,Rain-Thunderstorm,86
2013-2-26,69,62,55,66,52,44,94,70,55,29.91,29.69,29.52,10,8,1,21,12,29,0.70,4,Rain-Thunderstorm,232
2013-2-27,61,54,48,48,42,38,80,61,42,30.03,29.97,29.92,10,10,10,9,4,16,0.00,0,,269
2013-2-28,61,54,48,49,35,27,75,49,28,30.06,30.01,29.96,10,10,6,15,8,17,0.00,0,,326